Location: *
(50.9167°S, 179.4000°W)
Time: 20:16:58
(UTC+00:00)

Cosmos 676 Rocket - Pass Details

Date: 03 March 2024
Orbit: 752 x 782 km, 74.0° (Epoch: 16 April)

Event Time Altitude Azimuth Distance (km) Brightness Sun altitude
Exits shadow 16:12:25 - 346° (NNW) 2,820 6.5 -12.6°
Reaches altitude 10° 16:13:39 10° 347° (NNW) 2,348 6.1 -12.5°
Maximum altitude 16:18:58 71° 69° (ENE) 843 4.4 -11.7°
Drops below altitude 10° 16:24:22 10° 152° (SSE) 2,377 7.4 -10.9°
Sets 16:26:47 0° 154° (SSE) 3,310 8.2 -10.6°
